Location: Unspecified
(0.0000°N, 0.0000°E)
Time: 09:13:56
(UTC+02:00)

Ariane H10 - Visible Passes

Search period start: 26 September 2017 00:00
Search period end: 06 October 2017 00:00
Orbit: 521 x 34740 km, 7.2° (Epoch: 24 September)

Date Brightness Start Highest point End Pass type
(mag) Time Alt. Az. Time Alt. Az. Time Alt. Az.
26 Sep 4.6 12:18:29 10° W 21:37:51 84° N 21:39:43 54° E visible
28 Sep 5.9 04:54:25 65° S 04:54:58 66° S 14:19:51 10° E visible
29 Sep 4.5 21:01:31 10° W 21:37:35 86° N 21:39:16 56° E visible
01 Oct 5.9 04:53:58 66° S 04:54:50 67° S 14:20:13 10° E visible
02 Oct 4.4 21:05:34 10° W 21:37:16 89° N 21:38:47 58° E visible
04 Oct 5.9 04:53:29 66° SSW 04:54:40 68° SSE 14:20:31 10° E visible
05 Oct 4.3 21:08:45 10° W 21:36:54 89° SSW 21:38:18 59° E visible
